Regional Weather Roundup
Issued by NWS Charleston, WV

Home | Current Version | Previous Version | Text Only | Print | Product List | Glossary On
Versions: 1 2 3 4 5 6 7 8 9 10 11 12 13 14 15 16 17 18 19 20 21 22 23 24 25 26 27 28 29 30 31 32 33 34 35 36 37 38 39 40 41 42 43 44 45 46 47 48 49 50
000
ASUS41 KRLX 010410
RWRRLX
West Virginia Regional Weather Roundup
National Weather Service Charleston WV
1200 AM EDT TUE SEP 01 2015

Note: "fair" indicates few or no clouds below 12,000 feet with no
significant weather and/or obstructions to visibility.

WVZ003-010500-
Northern Panhandle of West Virginia

CITY           SKY/WX    TMP DP  RH WIND       PRES   REMARKS
WHEELING       CLEAR     74  65  73 CALM      30.11S
$$

WVZ009-010500-
Northwest West Virginia

CITY           SKY/WX    TMP DP  RH WIND       PRES   REMARKS
PARKERSBURG    CLOUDY    71  67  87 CALM      30.13S
$$

WVZ006-010500-
Western West Virginia

CITY           SKY/WX    TMP DP  RH WIND       PRES   REMARKS
HUNTINGTON     CLEAR     69  69 100 CALM      30.12R FOG
$$

WVZ015-010500-
West Central West Virginia

CITY           SKY/WX    TMP DP  RH WIND       PRES   REMARKS
CHARLESTON     CLEAR     69  66  90 CALM      30.12S
$$

WVZ022-031-010500-
North Central West Virginia

CITY           SKY/WX    TMP DP  RH WIND       PRES   REMARKS
CLARKSBURG     CLOUDY    70  68  93 CALM      30.12S
MORGANTOWN     PTCLDY    73  64  73 CALM      30.13S
$$

WVZ025-035-042-045-010500-
Southern West Virginia

CITY           SKY/WX    TMP DP  RH WIND       PRES   REMARKS
BECKLEY        MOCLDY    65  61  87 CALM      30.21S
LOGAN            N/A     70  66  88 CALM      30.16S
BLUEFIELD      PTCLDY    68  61  78 W3        30.23S
LEWISBURG      PTCLDY    66  64  93 CALM      30.20R
$$

WVZ047-010500-
Northern Mountains of West Virginia

CITY           SKY/WX    TMP DP  RH WIND       PRES   REMARKS
ELKINS         PTCLDY    64  61  90 CALM      30.18S
$$

WVZ052-010500-
Eastern Panhandle of West Virginia

CITY           SKY/WX    TMP DP  RH WIND       PRES   REMARKS
MARTINSBURG    CLEAR     70  64  81 CALM      30.07S
PETERSBURG     CLEAR     67  67  99 CALM      30.12S FOG
$$



USA.gov is the U.S. government's official web portal to all federal, state and local government web resources and services.